Regional Weather Roundup
Issued by NWS

Home | Current Version | Previous Version | Graphics & Text | Print | Product List | Glossary On
Versions: 1 2 3 4 5 6 7 8 9 10 11 12 13 14 15 16 17 18 19 20 21 22 23 24 25 26 27 28 29 30 31 32 33 34 35 36 37 38 39 40 41 42 43 44 45 46 47 48 49 50
000
ASUS43 KOAX 062110
RWRNE

WEATHER ROUNDUP FOR NEBRASKA
NATIONAL WEATHER SERVICE OMAHA NE
400 PM CDT MON JUL 06 2015

NOTES: SATELLITE DATA IS BEING USED TO AUGMENT CLOUD COVER ABOVE
       12000 FEET.
       "FAIR" INDICATES FEW OR NO CLOUDS BELOW 12,000 FEET WITH NO
       SIGNIFICANT WEATHER AND/OR OBSTRUCTIONS TO VISIBILITY.

  * THESE STATIONS DO NOT REPORT WEATHER SUCH AS RAIN...SNOW OR FOG.

NEZ001>004-019>022-054>056-062200-
NEBRASKA PANHANDLE

CITY           SKY/WX    TMP DP  RH WIND       PRES   REMARKS
SCOTTSBLUFF    CLOUDY    69  52  54 E6        30.25F HAZE
ALLIANCE       PTSUNNY   69  54  58 N12       30.23S HAZE
CHADRON        CLOUDY    70  52  52 N7        30.24S HAZE
KIMBALL          N/A    N/A N/A N/A MISG        N/A
SIDNEY         CLOUDY    70  52  52 NE14G22   30.24F HAZE
$$

NEZ057>060-069>072-079>082-062200-
SOUTHWEST NEBRASKA

CITY           SKY/WX    TMP DP  RH WIND       PRES   REMARKS
NORTH PLATTE   PTSUNNY   75  53  46 N18G25    30.13S
IMPERIAL       PTSUNNY   75  54  47 N16G24    30.16S
LEXINGTON      PTSUNNY   77  51  40 N18G26    30.08S HAZE
MCCOOK         PTSUNNY   78  57  48 N23       30.09F HAZE
OGALLALA       PTSUNNY   74  52  47 N17G23    30.18S HAZE
$$

NEZ005>010-023>029-035>040-094-062200-
NORTH CENTRAL NEBRASKA

CITY           SKY/WX    TMP DP  RH WIND       PRES   REMARKS
VALENTINE      PTSUNNY   74  54  49 N12       30.16S
AINSWORTH      MOSUNNY   74  53  48 N20       30.15S
BROKEN BOW     CLOUDY    74  53  48 N16G26    30.09F HAZE
O`NEILL        MOSUNNY   75  56  50 N21       30.09S HAZE
ORD            PTSUNNY   76  54  46 N23G30    30.06R HAZE
THEDFORD       MOSUNNY   74  53  48 N15G22    30.16F HAZE
$$

NEZ041-046>049-061>064-073>077-083>087-062200-
SOUTH CENTRAL NEBRASKA

CITY           SKY/WX    TMP DP  RH WIND       PRES   REMARKS
GRAND ISLAND   PTSUNNY   76  61  59 N18G29    30.02S HAZE
AURORA         PTSUNNY   75  65  71 N24       29.99F
HASTINGS       CLOUDY    77  61  57 N21G30    30.01S HAZE
HEBRON         CLOUDY    73  65  77 N18       29.94F
HOLDREGE       PTSUNNY   76  57  51 N18G26    30.05S HAZE
KEARNEY *      PTSUNNY   75  57  53 N22       30.04S
YORK           CLOUDY    75  66  73 N23G33    29.98F
$$

NEZ011>018-030>034-042>045-062200-
NORTHEAST NEBRASKA

CITY           SKY/WX    TMP DP  RH WIND       PRES   REMARKS
NORFOLK        CLOUDY    76  60  57 N23       30.00F HAZE
ALBION         PTSUNNY   76  57  51 N20G25    30.03S HAZE
BLAIR          CLOUDY    72  67  85 N17G24    29.93S
FREMONT        CLOUDY    74  67  78 N10G16    29.95F
TEKAMAH        CLOUDY    77  67  71 N22G30    29.94S
WAYNE          PTSUNNY   75  62  64 N17G25    30.00S
$$

NEZ050>053-065>068-078-088>093-062200-
SOUTHEAST NEBRASKA

CITY           SKY/WX    TMP DP  RH WIND       PRES   REMARKS
LINCOLN        LGT RAIN  73  69  87 N22       29.93F FOG
OMAHA EPPLEY   LGT RAIN  75  72  90 N17       29.90F
BEATRICE       CLOUDY    73  69  89 N21G26    29.90F
FALLS CITY     LGT RAIN  76  73  91 N9        29.84S
NEBRASKA CITY  CLOUDY    73  71  93 N10       29.88F
PLATTSMOUTH    LGT RAIN  74  71  90 N10G28    29.89F
$$

NEZ044-045-051>053-067-062200-
OMAHA AREA

CITY           SKY/WX    TMP DP  RH WIND       PRES   REMARKS
OMAHA EPPLEY   LGT RAIN  75  72  90 N17       29.90F
BLAIR          CLOUDY    72  67  85 N17G24    29.93S
FREMONT        CLOUDY    74  67  78 N10G16    29.95F
MILLARD        DRIZZLE   74  71  89 N9G17     29.90F
OFFUTT AFB     LGT RAIN  73  72  94 N13       29.88F
PLATTSMOUTH    LGT RAIN  74  71  90 N10G28    29.89F
WAHOO          CLOUDY    73  67  83 N22G29    29.94S
$$



USA.gov is the U.S. government's official web portal to all federal, state and local government web resources and services.